Location: Maurens
(43.5946°N, 0.9165°E)
Time: 14:56:14
(UTC+00:00)

Daily predictions for brighter satellites

Satellite Brightness Start Highest point End
(mag) Time Altitude Azimuth Time Altitude Azimuth Time Altitude Azimuth
Okean-O 4.4 19:34:19 10° ESE 19:37:01 16° ENE 19:39:44 10° NNE
Cosmos 968 Rocket 4.5 19:34:21 10° N 19:39:02 32° ENE 19:43:41 10° ESE
Cosmos 676 Rocket 4.3 19:34:36 10° N 19:39:41 51° ENE 19:44:42 10° SE
Cosmos 1975 Rocket 3.7 19:37:04 10° NNW 19:41:20 57° W 19:45:33 10° S
Cosmos 1605 Rocket 4.2 19:37:32 10° S 19:43:41 79° W 19:49:58 10° N
Okean 1 Rocket 3.8 19:48:02 10° SSE 19:51:59 34° E 19:55:57 10° NNE
Cosmos 1980 Rocket 3.6 19:47:25 10° N 19:52:01 24° NE 19:56:34 10° ESE
ARIANE 6 FM1 Upper Stage 3.5 19:49:40 10° NW 19:53:26 42° WSW 19:57:11 10° SSE
SL-08 R/B 4.0 19:49:04 10° NNE 19:53:29 34° E 19:57:47 10° SSE
SL-24 R/B 4.3 19:50:50 10° N 19:55:25 82° WNW 19:59:43 10° SSW
Cosmos 2084 4.4 19:51:36 10° SW 19:55:37 50° NW 19:59:40 10° NNE
CZ-4 R/B 1.2 19:54:38 10° S 19:58:16 82° WSW 20:01:54 10° NNW
Meteor 2-3 Rocket 4.1 19:52:53 10° N 19:58:21 49° ENE 20:03:47 10° SSE
CZ-4B R/B 4.2 19:57:21 10° S 20:01:18 68° W 20:05:20 10° NNW
ASTEX 1 3.4 19:59:26 10° S 20:04:24 90° WNW 20:09:23 10° N
SPOT 5 3.7 20:00:26 10° S 20:04:33 45° W 20:08:43 10° NNW
CZ-4B DEB 4.3 20:00:19 10° SSE 20:05:50 90° ENE 20:11:24 10° NNW
Cosmos 2056 Rocket 4.0 20:02:15 10° SSW 20:07:37 69° WNW 20:13:00 10° NNE
CZ-4B R/B 3.3 20:02:35 10° SSE 20:08:11 69° ENE 20:13:48 10° N
Cosmos 1833 Rocket 2.8 20:03:00 10° SSW 20:08:37 85° WNW 20:14:15 10° NNE
CSL-04 Rocket 4.4 20:03:31 10° S 20:08:55 55° W 20:14:17 10° NNW
Cosmos 1110 Rocket 4.2 20:03:59 10° S 20:09:05 51° ESE 20:14:12 10° NNE
Cosmos 1802 Rocket 4.5 20:03:54 10° SSE 20:09:37 40° E 20:15:18 10° NNE
Cosmos 1624 Rocket 4.4 20:05:28 10° SSW 20:10:36 66° WNW 20:15:46 10° NNE
Terra 1.8 20:07:43 10° SSE 20:12:24 78° ENE 20:17:06 10° N
CBERS 1 LM4 rocket 4.4 20:08:05 10° SSE 20:12:55 81° ENE 20:18:00 10° NNW
Gbstr 26 Del rocket 4.3 20:09:40 10° NW 20:14:37 39° NNE 20:18:44 10° E
Sich 1 Rocket 3.7 20:10:32 10° S 20:14:45 52° E 20:19:00 10° NNE
SJ 16-02 3.5 20:18:16 10° NW 20:21:33 22° W 20:24:49 10° SSW
MetOp-B 4.2 20:17:36 10° SSE 20:22:58 87° W 20:28:21 10° NNW
PAYLOAD B 4.4 20:19:08 10° S 20:24:36 73° WSW 20:30:09 10° NNW
USA 229 DEB 4.1 20:19:34 10° NW 20:27:13 87° SW 20:34:05 17° SSE
USA 229 4.1 20:19:37 10° NW 20:27:17 88° SW 20:34:07 17° SSE
Cosmos 1743 3.3 20:25:19 10° NNE 20:27:54 25° ENE 20:28:34 23° E
Cosmos 44 Rocket 3.4 20:24:21 10° SSW 20:29:16 58° ESE 20:34:20 10° NE
Cosmos 1459 Rocket 3.9 20:24:16 10° S 20:30:32 79° E 20:36:44 10° N
ISS -3.6 20:27:22 10° SW 20:30:34 46° SE 20:33:47 10° ENE
SKYMED 3 4.4 20:27:58 10° N 20:31:55 78° WNW 20:35:51 10° SSW
Cosmos 2100 Rocket 4.0 20:27:52 10° S 20:34:05 88° W 20:40:24 10° N
Ariane Rocket 4.2 20:32:21 18° ESE 20:34:54 26° ENE 20:39:05 10° N
ADEOS 3.7 20:32:33 11° S 20:37:30 74° WSW 20:42:44 10° NNW
ATLAS 2AS CENTAUR R/B 3.9 20:31:26 10° WSW 20:38:03 45° NW 20:44:35 10° NNE
Spot 2 Rocket 3.4 20:36:58 19° SSE 20:40:38 77° ENE 20:45:40 10° N
BREEZE-M DEB (TANK) 3.3 20:39:11 10° WNW 20:42:12 83° NNE 20:47:10 19° ESE
SL-4 R/B 1.8 20:39:12 10° WNW 20:43:02 71° SW 20:44:44 31° SE
MOS 1-B 4.3 20:39:56 19° SSE 20:44:13 77° ENE 20:50:02 10° NNW
Cosmos 2082 Rocket 2.7 20:40:45 16° SSE 20:44:45 39° ESE 20:50:00 10° NE
Okean 2 Rocket 3.8 20:40:37 10° SSW 20:44:59 56° W 20:49:26 10° N
Cosmos 1607 3.9 20:49:41 10° SSW 20:55:38 57° ESE 21:01:44 10° NE
Cosmos 2233 Rocket 4.1 20:51:19 19° SSE 20:55:40 58° E 21:01:44 10° NNE
Cosmos 2228 3.0 20:55:36 34° SSE 20:57:04 52° E 21:01:04 10° NNE
SL-08 R/B 4.5 20:52:56 16° S 20:58:02 70° E 21:04:21 10° NNE
Cosmos 292 Rocket 4.2 20:53:57 10° NNW 20:58:37 55° WSW 21:01:33 22° S
USA 186 1.4 20:58:27 59° SW 20:58:44 67° WSW 21:01:25 10° NNW
Okean O Rocket 1.7 20:57:28 25° S 20:59:56 71° WSW 21:04:15 10° NNW
DELTA 2 R/B (1) 4.1 20:56:45 10° SW 21:01:48 36° SSE 21:03:11 31° SE
Tsikada Rocket 4.0 20:59:35 10° N 21:05:44 64° E 21:08:51 30° SSE
CZ-4C R/B 2.2 21:02:39 10° SW 21:06:40 60° NW 21:11:47 10° NNE
Cosmos 1725 Rocket 4.1 21:00:26 10° S 21:06:43 81° W 21:13:01 10° N
Cosmos 1452 Rocket 3.6 21:02:11 10° SSW 21:07:24 76° WNW 21:12:39 10° NNE
COSMOS 2406 4.1 21:07:29 28° ESE 21:07:57 28° ESE 21:12:46 10° NE
Cosmos 1697 Rocket 3.5 21:02:50 10° NW 21:08:08 44° WSW 21:11:52 18° S
Cosmos 1741 Rocket 4.1 21:05:03 10° NNW 21:10:22 74° WSW 21:13:01 30° S
SL-16 R/B 3.8 21:07:51 10° N 21:12:20 23° NE 21:14:58 17° E
Okean-O 3.2 21:10:27 24° SSW 21:12:52 53° W 21:17:09 10° NNW
ATLAS 3B R/B 3.2 21:09:02 10° NW 21:16:39 62° WSW 21:20:47 27° S
CZ-4B R/B 3.3 21:19:07 43° SE 21:20:37 72° ENE 21:25:23 10° N
Cosmos 1892 Rocket 4.0 21:17:24 10° NNW 21:21:38 56° W 21:23:28 31° SSW
USA 245 4.3 21:18:49 31° S 21:21:45 85° WSW 21:27:40 10° NNW
Cosmos 1455 Rocket 3.9 21:19:52 14° SSW 21:23:24 48° WNW 21:27:41 10° N
Cosmos 1302 Rocket 3.9 21:21:11 18° SSW 21:25:04 86° WNW 21:30:18 10° NNE
Cosmos 2333 Rocket 3.7 21:20:36 10° N 21:25:18 26° NE 21:27:39 20° E
Cosmos 2016 Rocket 4.4 21:19:37 10° SSW 21:25:52 64° W 21:32:03 10° N
CZ-4B R/B 2.6 21:33:11 61° WSW 21:33:14 61° WSW 21:36:35 10° NNW
Cosmos 2061 Rocket 3.9 21:29:50 26° S 21:33:35 86° W 21:39:54 10° N
Cosmos 1782 3.7 21:32:58 27° SW 21:34:16 39° WNW 21:37:35 10° N
Cosmos 1544 Rocket 3.5 21:35:33 59° ESE 21:35:44 59° E 21:40:01 10° NNE
Cosmos 1980 Rocket 2.5 21:30:48 10° NNW 21:36:24 59° WSW 21:38:32 36° S
SPOT 3 Rocket 3.7 21:34:29 38° S 21:36:25 69° WSW 21:41:34 10° NNW
NOSS 3-3 (A) 3.4 21:34:26 27° SSW 21:37:18 74° ESE 21:43:13 10° NE
BREEZE-M DEB (TANK) 4.1 21:33:32 10° SW 21:36:17 27° SW 21:36:17 27° SW
Cosmos 1933 4.0 21:44:19 41° NE 21:44:19 41° NE 21:47:09 10° NNE
Fengyun 1C 4.5 21:42:41 50° SSE 21:44:08 88° WSW 21:49:25 10° NNW
Cosmos 2084 Rocket 3.5 21:45:59 10° NNW 21:50:09 61° NE 21:50:19 61° ENE
Terra 4.5 21:48:59 10° WSW 21:50:28 11° W 21:51:58 10° WNW
Helios 1B rocket 4.2 21:51:51 17° NE 21:51:51 17° NE 21:53:31 10° NNE
IRS-1C Rocket 4.3 21:51:54 43° SSW 21:53:27 63° WSW 21:58:42 10° NNW
Cosmos 1758 Rocket 3.4 21:49:06 10° N 21:53:30 89° ESE 21:53:42 81° SSE
CZ-2C R/B 4.0 21:55:17 28° NW 21:55:17 28° NW 21:56:50 10° NNW
Cosmos 1464 Rocket 4.2 21:53:23 44° ESE 21:54:18 47° E 22:00:09 10° NNE
Milstar 3 4.4 21:48:31 10° WSW 21:54:30 26° S 21:54:30 26° S
Cosmos 1513 Rocket 4.4 21:56:21 49° SSE 21:58:08 75° E 22:04:19 10° NNE
Gbstr 26 Del rocket 3.1 21:56:36 10° WNW 22:00:52 61° WSW 22:00:52 61° WSW
Cosmos 2360 Rocket 3.5 21:57:42 10° N 22:02:35 28° NE 22:04:14 25° E
NOSS 3-3 (C) 3.6 22:02:52 35° SW 22:05:12 85° NW 22:11:19 10° NE
ISS -2.0 22:04:23 10° W 22:07:27 33° NNW 22:08:14 29° N
Cosmos 1072 Rocket 4.4 22:08:18 56° SSE 22:09:29 68° E 22:15:44 10° NNE
Geosat 4.1 22:05:52 10° NNE 22:10:52 74° WNW 22:12:24 45° SW
Cosmos 2237 4.3 22:06:34 10° NNW 22:12:17 68° WSW 22:13:13 58° SSW
Ariane Rocket 3.9 22:12:25 35° SW 22:13:34 40° W 22:18:19 10° NNW
USA 305 3.8 22:10:24 10° NW 22:13:09 38° NNW 22:13:09 38° NNW
Cosmos 1602 Rocket 3.7 22:14:50 10° N 22:18:42 71° NNW 22:18:42 71° NNW
Cosmos 2219 Rocket 3.7 22:15:27 10° N 22:20:03 25° NE 22:21:48 22° ENE
Cosmos 1437 Rocket 3.9 22:21:47 38° NNW 22:21:47 38° NNW 22:24:19 10° N
Cosmos 2369 4.3 22:22:08 10° NW 22:27:32 44° WSW 22:28:18 42° SW
Cosmos 2034 Rocket 4.1 22:27:37 56° ESE 22:28:15 58° E 22:34:29 10° NNE
Cosmos 2082 Rocket 3.7 22:23:39 10° WSW 22:28:50 35° NW 22:34:02 10° N
Cosmos 2151 3.8 22:25:26 10° NNW 22:28:56 42° WNW 22:28:56 42° WNW
Cosmos 2322 Rocket 2.7 22:24:50 10° NNW 22:30:18 47° ENE 22:31:03 44° E
Cosmos 1428 Rocket 4.4 22:24:16 10° N 22:30:32 71° E 22:31:20 63° SE
Meteor 1-5 Rocket 4.1 22:33:55 10° N 22:39:37 86° W 22:40:03 77° S
USA 234 3.1 22:34:23 10° NE 22:40:57 76° SE 22:42:48 50° SSW
Cosmos 1763 Rocket 4.2 22:45:39 43° ENE 22:45:39 43° ENE 22:49:41 10° NNE
Okean 1-7 Rocket 4.1 22:43:27 10° NNW 22:47:08 57° NW 22:47:08 57° NW
Cosmos 1503 Rocket 4.3 22:44:03 10° NNW 22:49:02 56° ENE 22:49:02 56° ENE
Cosmos 1777 Rocket 4.0 22:44:14 10° NNW 22:49:16 72° NE 22:49:16 72° NE
Cosmos 2278 3.5 22:43:45 10° NNW 22:49:30 90° W 22:49:38 86° SSE
Helios 1A 4.0 22:45:46 10° N 22:48:44 41° NNW 22:48:44 41° NNW
COSMOS 2406 4.1 22:49:26 29° WSW 22:51:58 46° WNW 22:57:30 10° NNE
Cosmos 1606 Rocket 4.2 22:52:45 52° NNW 22:52:45 52° NNW 22:56:18 10° N
SL-16 R/B 2.3 22:51:16 10° NNW 22:56:47 62° WSW 22:56:47 62° WSW
Cosmos 1634 Rocket 4.2 22:57:50 54° E 22:57:54 54° E 23:03:55 10° NNE
Cosmos 1486 Rocket 4.1 22:55:59 10° NNW 23:00:50 72° WNW 23:00:50 72° WNW
Nadezhda 4 Rocket 4.1 22:56:12 10° NNW 23:02:12 59° W 23:02:51 56° WSW
Cosmos 2098 Rocket 4.3 23:02:09 39° W 23:02:33 40° WNW 23:07:02 10° N
SeaSat 1 4.3 23:03:53 19° ENE 23:05:20 21° NE 23:08:59 10° N
Cosmos 2333 Rocket 2.5 23:04:22 10° NNW 23:09:39 55° W 23:09:39 55° W
Meteor 2-2 Rocket 4.3 23:10:21 69° ENE 23:10:21 69° ENE 23:15:42 10° NNE
CZ-2C R/B 3.9 23:16:22 29° ENE 23:16:50 30° ENE 23:21:21 10° N
BREEZE-M DEB (TANK) 4.0 23:08:32 10° W 23:17:01 63° N 23:21:56 10° E
Cosmos 1833 4.2 23:17:41 75° NE 23:17:41 75° NE 23:22:55 10° NNE
Cosmos 1627 Rocket 4.4 23:11:02 10° N 23:17:26 84° W 23:17:52 78° SSW
Spot 4 4.3 23:23:21 59° NNW 23:23:21 59° NNW 23:27:15 10° NNW
Cosmos 2026 Rocket 4.0 23:20:33 10° NNW 23:26:54 68° W 23:27:17 66° WSW
Aureole 1 Rocket 4.1 23:26:13 10° NNW 23:31:38 59° ENE 23:32:03 58° E
Cosmos 2297 Rocket 4.3 23:33:58 15° E 23:33:58 15° E 23:36:05 10° ENE
DNEPR-1 R/B 4.5 23:28:14 10° NW 23:33:34 66° WSW 23:33:34 66° WSW
Cosmos 2333 4.4 23:34:22 10° NNW 23:39:28 62° WNW 23:39:28 62° WNW
ALOS 2 3.8 23:43:55 39° NW 23:43:55 39° NW 23:46:52 10° NNW
ARIANE 5 R/B 3.9 23:44:33 35° NW 23:44:33 35° NW 23:47:27 10° NNW
Cosmos 2360 Rocket 2.8 23:41:20 10° NW 23:45:57 45° W 23:45:57 45° W
Cosmos 2058 Rocket 4.3 23:48:52 37° NW 23:48:52 37° NW 23:51:56 10° N
Meteor 1-11 Rocket 4.4 23:43:50 10° N 23:49:15 43° ENE 23:49:31 42° E
Cosmos 468 Rocket 4.2 23:51:08 68° NNE 23:51:08 68° NNE 23:55:43 10° NNE
GP-B 4.3 23:46:17 10° NNE 23:49:14 37° NE 23:49:14 37° NE
